| time (UTC) | temp F | wind direction | speed MPH | gust MPH | rain 1hr in | rain 24hr in | rain mn in | humidity % | barometer mb |
| 20260901091841 | 71 | 215 | 1.0 | 1.0 | 0.00 | 0.00 | 0.00 | 99 | 4254.7 |
| 20260901090842 | 72 | 219 | 0.0 | 1.0 | 0.00 | 0.00 | 0.00 | 99 | 4254.7 |
| 20260901085838 | 72 | 203 | 1.0 | 1.0 | 0.00 | 0.00 | 0.00 | 99 | 4254.6 |
| 20260901084835 | 72 | 206 | 1.0 | 1.0 | 0.00 | 0.00 | 0.00 | 99 | 4254.6 |
| 20260901083832 | 72 | 213 | 1.0 | 1.0 | 0.00 | 0.00 | 0.00 | 99 | 4254.6 |
| 20260901082830 | 72 | 220 | 1.0 | 1.0 | 0.00 | 0.00 | 0.00 | 99 | 4254.5 |
| 20260901081827 | 72 | 210 | 1.0 | 1.0 | 0.00 | 0.00 | 0.00 | 99 | 4254.6 |
| 20260901080822 | 73 | 212 | 1.0 | 1.0 | 0.00 | 0.00 | 0.00 | 99 | 4254.5 |
| 20260901075822 | 72 | 202 | 2.0 | 2.0 | 0.00 | 0.00 | 0.00 | 99 | 4254.6 |
| 20260901074818 | 72 | 214 | 1.0 | 2.0 | 0.00 | 0.00 | 0.00 | 99 | 4254.4 |
| 20260901073814 | 73 | 211 | 1.0 | 2.0 | 0.00 | 0.00 | 0.00 | 99 | 4254.4 |
| 20260901072811 | 73 | 215 | 2.0 | 2.0 | 0.00 | 0.00 | 0.00 | 99 | 4254.6 |
| 20260901071806 | 73 | 212 | 1.0 | 1.0 | 0.00 | 0.00 | 0.00 | 99 | 4254.5 |
| 20260901070803 | 73 | 212 | 1.0 | 1.0 | 0.00 | 0.00 | 0.00 | 99 | 4254.6 |
| 20260901065759 | 73 | 209 | 1.0 | 1.0 | 0.00 | 0.00 | 0.00 | 99 | 4254.6 |
| 20260901064756 | 74 | 203 | 1.0 | 1.0 | 0.00 | 0.00 | 0.00 | 99 | 4254.5 |
| 20260901063755 | 73 | 207 | 1.0 | 1.0 | 0.00 | 0.00 | 0.00 | 99 | 4254.5 |
| 20260901062752 | 74 | 214 | 1.0 | 1.0 | 0.00 | 0.00 | 0.00 | 99 | 4254.4 |
| 20260901061749 | 74 | 208 | 1.0 | 1.0 | 0.00 | 0.00 | 0.00 | 99 | 4254.5 |
| 20260901060744 | 74 | 215 | 1.0 | 1.0 | 0.00 | 0.00 | 0.00 | 99 | 4254.6 |
| 20260901055740 | 75 | 220 | 1.0 | 1.0 | 0.00 | 0.00 | 0.00 | 99 | 4254.6 |
| 20260901054739 | 75 | 206 | 1.0 | 1.0 | 0.00 | 0.00 | 0.00 | 99 | 4254.5 |
| 20260901053737 | 76 | 210 | 1.0 | 1.0 | 0.00 | 0.00 | 0.00 | 98 | 4254.7 |
| 20260901052733 | 76 | 210 | 0.0 | 0.0 | 0.00 | 0.00 | 0.00 | 99 | 4254.6 |
| 20260901051733 | 76 | 210 | 0.0 | 1.0 | 0.00 | 0.00 | 0.00 | 99 | 4254.7 |
| 20260901050729 | 77 | 211 | 0.0 | 0.0 | 0.00 | 0.00 | 0.00 | 97 | 4254.7 |
| 20260901045725 | 77 | 211 | 0.0 | 0.0 | 0.00 | 0.00 | 0.00 | 97 | 4254.6 |
| 20260901044721 | 76 | 211 | 0.0 | 0.0 | 0.00 | 0.00 | 0.00 | 97 | 4254.6 |
| 20260901043719 | 77 | 208 | 1.0 | 1.0 | 0.00 | 0.00 | 0.00 | 96 | 4254.5 |
| 20260901042714 | 77 | 189 | 0.0 | 0.0 | 0.00 | 0.00 | 0.00 | 96 | 4254.4 |
| 20260901041711 | 77 | 209 | 1.0 | 1.0 | 0.00 | 0.00 | 0.00 | 96 | 4254.5 |
| 20260901040711 | 77 | 210 | 1.0 | 1.0 | 0.00 | 0.00 | 0.00 | 95 | 4254.4 |
| 20260901035708 | 78 | 217 | 1.0 | 1.0 | 0.00 | 0.00 | 0.00 | 95 | 4254.5 |
| 20260901034707 | 78 | 210 | 1.0 | 1.0 | 0.00 | 0.00 | 0.00 | 93 | 4254.4 |
| 20260901033707 | 78 | 210 | 0.0 | 0.0 | 0.00 | 0.00 | 0.00 | 91 | 4254.5 |
| 20260901032706 | 78 | 213 | 1.0 | 1.0 | 0.00 | 0.00 | 0.00 | 94 | 4254.6 |
| 20260901031702 | 78 | 220 | 2.0 | 2.0 | 0.00 | 0.00 | 0.00 | 95 | 4254.5 |
| 20260901030658 | 78 | 212 | 1.0 | 1.0 | 0.00 | 0.00 | 0.00 | 95 | 4254.5 |
| 20260901025653 | 78 | 214 | 1.0 | 1.0 | 0.00 | 0.00 | 0.00 | 94 | 4254.4 |
| 20260901024653 | 79 | 213 | 1.0 | 1.0 | 0.00 | 0.00 | 0.00 | 94 | 4254.5 |
| 20260901023652 | 79 | 205 | 0.0 | 1.0 | 0.00 | 0.00 | 0.00 | 93 | 4254.4 |
| 20260901022647 | 80 | 205 | 1.0 | 1.0 | 0.00 | 0.00 | 0.00 | 92 | 4254.5 |
| 20260901021643 | 80 | 209 | 1.0 | 1.0 | 0.00 | 0.00 | 0.00 | 92 | 4254.4 |
| 20260901020641 | 80 | 220 | 1.0 | 1.0 | 0.00 | 0.00 | 0.00 | 91 | 4254.1 |
| 20260901015637 | 81 | 239 | 1.0 | 1.0 | 0.00 | 0.00 | 0.00 | 90 | 4254.2 |
| 20260901014637 | 81 | 230 | 1.0 | 2.0 | 0.00 | 0.00 | 0.00 | 89 | 4254.1 |
| 20260901013634 | 82 | 228 | 1.0 | 1.0 | 0.00 | 0.00 | 0.00 | 87 | 4254.0 |
| 20260901012630 | 83 | 218 | 1.0 | 1.0 | 0.00 | 0.00 | 0.00 | 85 | 4254.1 |
| 20260901011627 | 83 | 240 | 1.0 | 2.0 | 0.00 | 0.00 | 0.00 | 83 | 4253.9 |
| 20260901010627 | 84 | 223 | 0.0 | 0.0 | 0.00 | 0.00 | 0.00 | 80 | 4253.7 |
| 20260901005626 | 85 | 224 | 1.0 | 1.0 | 0.00 | 0.00 | 0.00 | 79 | 4253.9 |
| 20260901004626 | 85 | 224 | 0.0 | 0.0 | 0.00 | 0.00 | 0.00 | 78 | 4253.8 |
| 20260901003622 | 85 | 224 | 0.0 | 1.0 | 0.00 | 0.00 | 0.00 | 77 | 4253.4 |
| 20260901002621 | 87 | 211 | 0.0 | 0.0 | 0.00 | 0.00 | 0.00 | 75 | 4253.4 |
| 20260901001617 | 87 | 211 | 0.0 | 0.0 | 0.00 | 0.00 | 0.00 | 73 | 4253.3 |
| 20260901000613 | 88 | 210 | 0.0 | 0.0 | 0.00 | 0.00 | 0.00 | 72 | 4253.5 |
| 20260831235608 | 88 | 210 | 1.0 | 1.0 | 0.00 | 0.00 | 0.00 | 71 | 4253.5 |
| 20260831234603 | 89 | 210 | 1.0 | 1.0 | 0.00 | 0.00 | 0.00 | 71 | 4253.6 |
| 20260831233600 | 89 | 195 | 0.0 | 1.0 | 0.00 | 0.00 | 0.00 | 69 | 4253.7 |
| 20260831232557 | 89 | 208 | 0.0 | 1.0 | 0.00 | 0.00 | 0.00 | 69 | 4253.8 |
| 20260831231554 | 89 | 357 | 0.0 | 1.0 | 0.00 | 0.00 | 0.00 | 71 | 4253.5 |
| 20260831230551 | 90 | 358 | 0.0 | 0.0 | 0.00 | 0.00 | 0.00 | 76 | 4253.7 |
| 20260831225547 | 91 | 356 | 0.0 | 0.0 | 0.00 | 0.00 | 0.00 | 72 | 4253.8 |
| 20260831224542 | 91 | 356 | 0.0 | 0.0 | 0.00 | 0.00 | 0.00 | 74 | 4253.8 |
| 20260831223538 | 91 | 344 | 1.0 | 1.0 | 0.00 | 0.00 | 0.00 | 72 | 4253.8 |
| 20260831222536 | 92 | 42 | 0.0 | 1.0 | 0.00 | 0.00 | 0.00 | 66 | 4253.9 |
| 20260831221532 | 93 | 331 | 1.0 | 2.0 | 0.00 | 0.00 | 0.00 | 69 | 4253.8 |
| 20260831220527 | 93 | 331 | 1.0 | 2.0 | 0.00 | 0.00 | 0.00 | 67 | 4254.1 |
| 20260831215525 | 92 | 75 | 1.0 | 1.0 | 0.00 | 0.00 | 0.00 | 65 | 4253.9 |
| 20260831214523 | 93 | 344 | 1.0 | 1.0 | 0.00 | 0.00 | 0.00 | 67 | 4254.0 |
| 20260831213521 | 93 | 344 | 1.0 | 2.0 | 0.00 | 0.00 | 0.00 | 66 | 4254.0 |
| 20260831212518 | 93 | 321 | 0.0 | 1.0 | 0.00 | 0.00 | 0.00 | 70 | 4254.1 |
| 20260831211513 | 93 | 321 | 2.0 | 2.0 | 0.00 | 0.00 | 0.00 | 67 | 4254.3 |
| 20260831210513 | 92 | 308 | 1.0 | 1.0 | 0.00 | 0.00 | 0.00 | 68 | 4254.4 |
| 20260831205510 | 91 | 349 | 2.0 | 2.0 | 0.00 | 0.00 | 0.00 | 70 | 4254.4 |
| 20260831204506 | 91 | 359 | 0.0 | 1.0 | 0.00 | 0.00 | 0.00 | 76 | 4254.4 |
| 20260831203504 | 87 | 21 | 0.0 | 0.0 | 0.00 | 0.00 | 0.00 | 77 | 4254.4 |
| 20260831202504 | 88 | 21 | 1.0 | 1.0 | 0.00 | 0.00 | 0.00 | 77 | 4254.5 |
| 20260831201501 | 87 | 51 | 1.0 | 1.0 | 0.00 | 0.00 | 0.00 | 77 | 4254.7 |
| 20260831200459 | 89 | 8 | 2.0 | 2.0 | 0.00 | 0.00 | 0.00 | 73 | 4254.9 |
| 20260831195455 | 89 | 23 | 1.0 | 1.0 | 0.00 | 0.00 | 0.00 | 77 | 4254.8 |
| 20260831194451 | 89 | 19 | 5.0 | 7.0 | 0.00 | 0.00 | 0.00 | 72 | 4254.8 |
| 20260831193446 | 92 | 18 | 3.0 | 3.0 | 0.00 | 0.00 | 0.00 | 71 | 4254.8 |
| 20260831192441 | 95 | 350 | 3.0 | 3.0 | 0.00 | 0.00 | 0.00 | 59 | 4254.9 |
| 20260831191438 | 94 | 10 | 4.0 | 5.0 | 0.00 | 0.00 | 0.00 | 63 | 4254.9 |
| 20260831190435 | 93 | 317 | 2.0 | 2.0 | 0.00 | 0.00 | 0.00 | 64 | 4255.1 |
| 20260831185430 | 93 | 358 | 3.0 | 5.0 | 0.00 | 0.00 | 0.00 | 68 | 4255.0 |
| 20260831184430 | 93 | 10 | 4.0 | 5.0 | 0.00 | 0.00 | 0.00 | 67 | 4255.3 |
| 20260831183425 | 93 | 2 | 5.0 | 5.0 | 0.00 | 0.00 | 0.00 | 69 | 4255.5 |
| 20260831182420 | 92 | 18 | 3.0 | 3.0 | 0.00 | 0.00 | 0.00 | 69 | 4255.7 |
| 20260831181417 | 93 | 18 | 3.0 | 5.0 | 0.00 | 0.00 | 0.00 | 67 | 4255.7 |
| 20260831180417 | 92 | 17 | 3.0 | 3.0 | 0.00 | 0.00 | 0.00 | 71 | 4255.7 |
| 20260831175413 | 92 | 1 | 5.0 | 6.0 | 0.00 | 0.00 | 0.00 | 69 | 4255.9 |
| 20260831174410 | 91 | 5 | 3.0 | 3.0 | 0.00 | 0.00 | 0.00 | 71 | 4255.9 |
| 20260831173408 | 92 | 11 | 3.0 | 3.0 | 0.00 | 0.00 | 0.00 | 73 | 4256.1 |
| 20260831172406 | 91 | 7 | 3.0 | 3.0 | 0.00 | 0.00 | 0.00 | 73 | 4256.2 |
| 20260831171402 | 90 | 15 | 2.0 | 2.0 | 0.00 | 0.00 | 0.00 | 74 | 4256.3 |
| 20260831170400 | 91 | 14 | 2.0 | 2.0 | 0.00 | 0.00 | 0.00 | 75 | 4256.5 |
| 20260831165358 | 89 | 10 | 3.0 | 3.0 | 0.00 | 0.00 | 0.00 | 80 | 4256.6 |
| 20260831164356 | 90 | 59 | 1.0 | 2.0 | 0.00 | 0.00 | 0.00 | 77 | 4256.6 |
| 20260831163353 | 90 | 345 | 2.0 | 2.0 | 0.00 | 0.00 | 0.00 | 80 | 4256.7 |
| 20260831162353 | 88 | 79 | 0.0 | 1.0 | 0.00 | 0.00 | 0.00 | 78 | 4256.8 |
| 20260831161348 | 87 | 52 | 0.0 | 0.0 | 0.00 | 0.00 | 0.00 | 80 | 4256.8 |
| 20260831160343 | 86 | 9 | 1.0 | 1.0 | 0.00 | 0.00 | 0.00 | 83 | 4256.8 |
| 20260831155338 | 87 | 9 | 1.0 | 1.0 | 0.00 | 0.00 | 0.00 | 84 | 4256.8 |
| 20260831154336 | 88 | 17 | 3.0 | 5.0 | 0.00 | 0.00 | 0.00 | 81 | 4257.1 |
| 20260831153336 | 87 | 10 | 2.0 | 3.0 | 0.00 | 0.00 | 0.00 | 83 | 4256.9 |
| 20260831152334 | 86 | 8 | 2.0 | 2.0 | 0.00 | 0.00 | 0.00 | 84 | 4257.1 |
| 20260831151333 | 86 | 2 | 3.0 | 3.0 | 0.00 | 0.00 | 0.00 | 84 | 4256.9 |
| 20260831150330 | 84 | 12 | 3.0 | 3.0 | 0.00 | 0.00 | 0.00 | 86 | 4257.0 |
| 20260831145326 | 84 | 14 | 2.0 | 2.0 | 0.00 | 0.00 | 0.00 | 86 | 4256.8 |
| 20260831144322 | 83 | 12 | 2.0 | 2.0 | 0.00 | 0.00 | 0.00 | 87 | 4256.8 |
| 20260831143318 | 83 | 12 | 1.0 | 2.0 | 0.00 | 0.00 | 0.00 | 87 | 4256.9 |
| 20260831142314 | 82 | 13 | 3.0 | 3.0 | 0.00 | 0.00 | 0.00 | 89 | 4256.8 |
| 20260831141314 | 81 | 13 | 2.0 | 3.0 | 0.00 | 0.00 | 0.00 | 90 | 4256.8 |
| 20260831140309 | 81 | 37 | 1.0 | 2.0 | 0.00 | 0.00 | 0.00 | 92 | 4256.9 |
| 20260831135309 | 80 | 8 | 1.0 | 1.0 | 0.00 | 0.00 | 0.00 | 92 | 4256.8 |
| 20260831134307 | 79 | 9 | 3.0 | 3.0 | 0.00 | 0.00 | 0.00 | 94 | 4256.8 |
| 20260831133306 | 79 | 18 | 1.0 | 2.0 | 0.00 | 0.00 | 0.00 | 94 | 4256.8 |
| 20260831132306 | 78 | 11 | 1.0 | 2.0 | 0.00 | 0.00 | 0.00 | 94 | 4256.7 |
| 20260831131259 | 77 | 135 | 0.0 | 0.0 | 0.00 | 0.00 | 0.00 | 95 | 4256.7 |
| 20260831130254 | 77 | 231 | 0.0 | 1.0 | 0.00 | 0.00 | 0.00 | 95 | 4256.4 |
| 20260831125249 | 76 | 222 | 0.0 | 0.0 | 0.00 | 0.00 | 0.00 | 96 | 4256.5 |
| 20260831124246 | 75 | 237 | 1.0 | 1.0 | 0.00 | 0.00 | 0.00 | 98 | 4256.5 |
| 20260831123245 | 74 | 231 | 0.0 | 1.0 | 0.00 | 0.00 | 0.00 | 98 | 4256.5 |
| 20260831122241 | 73 | 243 | 1.0 | 1.0 | 0.00 | 0.00 | 0.00 | 99 | 4256.2 |
| 20260831121237 | 73 | 220 | 1.0 | 1.0 | 0.00 | 0.00 | 0.00 | 99 | 4256.1 |
| 20260831120232 | 73 | 225 | 1.0 | 1.0 | 0.00 | 0.00 | 0.00 | 99 | 4256.0 |
| 20260831115230 | 72 | 226 | 1.0 | 2.0 | 0.00 | 0.00 | 0.00 | 99 | 4256.1 |
| 20260831114229 | 72 | 227 | 1.0 | 1.0 | 0.00 | 0.00 | 0.00 | 99 | 4255.7 |
| 20260831113224 | 72 | 222 | 1.0 | 1.0 | 0.00 | 0.00 | 0.00 | 99 | 4255.5 |
| 20260831112219 | 72 | 219 | 1.0 | 1.0 | 0.00 | 0.00 | 0.00 | 99 | 4255.5 |
| 20260831111217 | 73 | 207 | 0.0 | 0.0 | 0.00 | 0.00 | 0.00 | 99 | 4255.4 |
| 20260831110213 | 72 | 236 | 1.0 | 1.0 | 0.00 | 0.00 | 0.00 | 99 | 4255.4 |
| 20260831105208 | 72 | 218 | 1.0 | 1.0 | 0.00 | 0.00 | 0.00 | 99 | 4255.5 |
| 20260831104205 | 72 | 218 | 1.0 | 1.0 | 0.00 | 0.00 | 0.00 | 99 | 4255.1 |
| 20260831103200 | 72 | 231 | 1.0 | 2.0 | 0.00 | 0.00 | 0.00 | 99 | 4255.1 |
| 20260831102200 | 72 | 218 | 1.0 | 1.0 | 0.00 | 0.00 | 0.00 | 99 | 4255.1 |
| 20260831101158 | 72 | 218 | 1.0 | 1.0 | 0.00 | 0.00 | 0.00 | 99 | 4255.0 |
| 20260831100155 | 72 | 214 | 0.0 | 1.0 | 0.00 | 0.00 | 0.00 | 99 | 4254.9 |
| 20260831095155 | 73 | 262 | 0.0 | 0.0 | 0.00 | 0.00 | 0.00 | 99 | 4255.0 |
| 20260831094151 | 73 | 235 | 1.0 | 1.0 | 0.00 | 0.00 | 0.00 | 99 | 4254.8 |
| 20260831093148 | 73 | 222 | 1.0 | 1.0 | 0.00 | 0.00 | 0.00 | 99 | 4254.8 |